Lexington Weather

Lexington, Massachusetts, USA

67°F
9/23/2021 4:44am 
  • Lexington Conditions: Overcast
  • Temperature: 67.1°F / 19.5°CWarmer 0.7°F than last hour.
  • Dew Point: 66.2°FIncreased 1.1°Fsince last hour.
  • Relative Humidity: 97%Increased 1.0% since last hour.
  • Wind: Calm, 10-min avg: Calm, gust: 3 mph
  • Barometer: 30.03 in Steady
  • Visibility: 10 miles
  • Rain Today: 0.00 in
  •   

Regional Weather Roundup
for Boston / Norton, MA

        
000
ASUS41 KBOX 180704
RWRBOX

REGIONAL WEATHER ROUNDUP
NATIONAL WEATHER SERVICE BOSTON/NORTON MA
300 AM EDT SAT SEP 18 2021

NOTE:  "FAIR" INDICATES FEW OR NO CLOUDS BELOW 12,000 FEET WITH NO 
SIGNIFICANT WEATHER AND/OR OBSTRUCTIONS TO VISIBILITY.

MAZALL-180800-
EASTERN MASSACHUSETTS
  
CITY           SKY/WX    TMP DP  RH WIND       PRES   REMARKS
BOSTON         FOG       66  63  90 N5        30.10F VSB 1/2          
BEVERLY        CLOUDY    64  63  96 NE3       30.10F FOG              
LAWRENCE       FOG       63  63 100 N3        30.14F VSB 1/2          
BEDFORD        FOG       64  64 100 N6        30.10F VSB 1/2          
BLUE HILL      NOT AVBL                                               
NORWOOD        CLOUDY    65  63  93 CALM      30.10F                  
MARSHFIELD     FOG       64  64 100 VRB5      30.09F VSB 1/4          
PLYMOUTH       FOG       65  65 100 N9        30.08F VSB 1/2          
TAUNTON        CLOUDY    64  64 100 VRB5      30.08F FOG              
NEW BEDFORD    CLOUDY    66  65  96 N6        30.06F FOG              
$$

MAZALL-180800-
CAPE COD AND THE ISLANDS
  
CITY           SKY/WX    TMP DP  RH WIND       PRES   REMARKS
FALMOUTH       FOG       66  66 100 NE9       30.07F VSB 1/2          
HYANNIS        FOG       69  69 100 N9        30.04F VSB 1/2          
CHATHAM        CLOUDY    68  67  96 N5        30.06F FOG              
PROVINCETOWN   LGT RAIN  65  65 100 N8        30.08F VSB 1/2          
NANTUCKET      MOCLDY    70  67  90 N9        30.03F                  
MARTHAS VNYRD  CLOUDY    68  68 100 N9        30.04F FOG              
$$
 
MAZALL-180800-
CENTRAL AND WESTERN MASSACHUSETTS
  
CITY           SKY/WX    TMP DP  RH WIND       PRES   REMARKS
WORCESTER      FOG       62  62 100 N5        30.13F VSB 1/4          
FITCHBURG      CLOUDY    64  62  93 N7        30.13F                  
ORANGE         CLOUDY    63  63 100 NW5       30.14F FOG              
SPRINGFIELD    CLOUDY    65  65 100 NE3       30.11S                  
WESTFIELD      CLOUDY    66  66 100 NE5       30.11F                  
NORTH ADAMS    CLOUDY    66  63  90 CALM      30.12F                  
PITTSFIELD     CLOUDY    65  63  93 CALM      30.13F                  
$$
 
RIZALL-180800-
RHODE ISLAND
  
CITY           SKY/WX    TMP DP  RH WIND       PRES   REMARKS
PROVIDENCE     CLOUDY    65  64  97 N10       30.10F                  
NEWPORT        FOG       64  64 100 N13       30.07F VSB 1            
BLOCK ISLAND   CLOUDY    65  64  97 NE12      30.07F                  
SMITHFIELD     LGT RAIN  63  63 100 N8        30.11F VSB 1/4          
WESTERLY       CLOUDY    64  64 100 N7        30.07F                  
$$
 
CTZALL-180800-
CONNECTICUT
  
CITY           SKY/WX    TMP DP  RH WIND       PRES   REMARKS
BRADLEY INTL   CLOUDY    65  64  97 NE7       30.11F                  
HARTFORD       CLOUDY    67  63  87 N6        30.10S                  
BRIDGEPORT     MOCLDY    69  65  86 N7        30.08F                  
DANBURY        CLOUDY    68  65  90 NE3       30.12S                  
GROTON         CLOUDY    66  65  96 N10       30.07F                  
NEW HAVEN      CLEAR     68  65  90 N7        30.08F                  
CHESTER        CLOUDY    66  66 100 NE6       30.09F                  
MERIDEN        CLOUDY    68  62  81 N6        30.09F                  
WILLIMANTIC    CLOUDY    65  63  93 N3        30.10F                  
OXFORD         CLOUDY    65  64  97 N7        30.12F                  
$$

MEZ002-015-021-024-NHZ003-005-008-011-012-014-VTZ005-008-180800-
NORTHERN NEW ENGLAND
  
CITY           SKY/WX    TMP DP  RH WIND       PRES   REMARKS
PORTLAND ME    FOG       61  61 100 CALM      30.13F VSB 3/4          
BANGOR ME      FOG       62  62 100 S3        30.14F VSB 1/4          
CONCORD NH     CLOUDY    63  62  97 CALM      30.13S FOG              
MANCHESTER NH  FOG       64  62  93 NE3       30.11F VSB 1            
NASHUA NH      CLOUDY    63  32  31 CALM      30.13F FOG              
PORTSMOUTH NH  FOG       63  62  99 N5        30.13F VSB 3/8          
JAFFREY NH     FOG       63  63 100 CALM      30.15S VSB 1/2          
KEENE NH       CLOUDY    63  63 100 CALM      30.13F                  
BURLINGTON VT  PTCLDY    69  64  84 S8        30.07F                  
MT. WASHINGTON FOG       48  48 100 W22         N/A  VSB 0            
$$

NYZ052-076-180800-
EASTERN NEW YORK
  
CITY           SKY/WX    TMP DP  RH WIND       PRES   REMARKS
ALBANY         MOCLDY    60  60 100 CALM      30.11S                  
NEW YORK CITY  PTCLDY    71  66  84 N6        30.08S                  
$$
 
ANZALL-180800-
MARINE OBSERVATIONS
  
STATION/POSITION TIME  TEMP    WIND        PRES    VSBY  WAVE
                       AIR SEA DIR/SP/G                  HT/PER
                 (UTC) (F)     (DEG/KT/KT) (MB)    (MI)  (FT/S)
BOSTON BUOY      0640      67  360/ 10/ 12 1019.8F
BUZZARDS BAY     0600           10/ 16/ 16 1019.2F
NANTUCKET SOUND  0640   70 72  360/ 12/ 14 1017.5F
MASS BAY-STELLWA 0604   64      10/ 10/ 12 1019.4F  1 7/8  2/ 5
ISLE OF SHOALS   0600   63     360/ 10/ 10 1019.6F
S OF BLOCK IS    0626      70                N/A           6/ 8
$$

......................KEY.........................
  SKY/WX - SKY CONDITION/PRESENT WEATHER
  TMP    - TEMPERATURE IN FAHRENHEIT
  DWPT   - DEWPOINT IN FAHRENHEIT
  RH     - RELATIVE HUMIDITY IN PERCENT
  WIND   - DIRECTION AND SPEED IN MPH
  PRES   - MEAN SEA LEVEL PRESSURE IN INCHES OF HG
  WCI    - WIND CHILL INDEX
  VSB    - VISIBILITY IN MILES
  HX     - HEAT INDEX
  TC     - TEMPERATURE IN CELSIUS
  VRB    - VARIABLE WIND DIRECTION
  N/A    - NOT AVAILABLE
  
      

Other recent Regional Weather Roundups

Thu Sep 23, 4:04am

Thu Sep 23, 3:04am

Thu Sep 23, 2:04am

Thu Sep 23, 1:04am

Thu Sep 23, 12:04am

Wed Sep 22, 11:04pm

Wed Sep 22, 10:04pm

Wed Sep 22, 9:04pm

Wed Sep 22, 8:04pm

Wed Sep 22, 7:04pm

Wed Sep 22, 6:04pm

Wed Sep 22, 5:04pm

Wed Sep 22, 4:04pm

Wed Sep 22, 3:04pm

Wed Sep 22, 2:04pm

Wed Sep 22, 1:04pm

Wed Sep 22, 12:05pm

Wed Sep 22, 11:04am

Wed Sep 22, 10:04am

Wed Sep 22, 9:04am

Wed Sep 22, 8:04am

Wed Sep 22, 7:04am

Wed Sep 22, 6:04am

Wed Sep 22, 5:04am

Wed Sep 22, 4:04am

Wed Sep 22, 3:04am

Wed Sep 22, 2:04am

Wed Sep 22, 1:04am

Wed Sep 22, 12:04am

Tue Sep 21, 11:04pm

Tue Sep 21, 10:04pm

Tue Sep 21, 9:04pm

Tue Sep 21, 8:04pm

Tue Sep 21, 7:04pm

Tue Sep 21, 6:04pm

Tue Sep 21, 5:04pm

Tue Sep 21, 4:04pm

Tue Sep 21, 3:04pm

Tue Sep 21, 2:04pm

Tue Sep 21, 1:04pm

Tue Sep 21, 12:04pm

Tue Sep 21, 11:04am

Tue Sep 21, 10:04am

Tue Sep 21, 9:04am

Tue Sep 21, 8:04am

Tue Sep 21, 7:04am

Tue Sep 21, 6:04am

Tue Sep 21, 5:04am

Tue Sep 21, 4:04am

Tue Sep 21, 3:04am

Tue Sep 21, 2:04am

Tue Sep 21, 1:04am

Tue Sep 21, 12:04am

Mon Sep 20, 11:04pm

Mon Sep 20, 10:04pm

Mon Sep 20, 9:04pm

Mon Sep 20, 8:04pm

Mon Sep 20, 7:04pm

Mon Sep 20, 6:04pm

Mon Sep 20, 5:04pm

Mon Sep 20, 4:04pm

Mon Sep 20, 3:04pm

Mon Sep 20, 2:04pm

Mon Sep 20, 1:04pm

Mon Sep 20, 12:04pm

Mon Sep 20, 11:04am

Mon Sep 20, 10:04am

Mon Sep 20, 9:04am

Mon Sep 20, 7:04am

Mon Sep 20, 6:04am

Mon Sep 20, 5:04am

Mon Sep 20, 4:04am

Mon Sep 20, 3:04am

Mon Sep 20, 2:04am

Mon Sep 20, 1:04am

Mon Sep 20, 12:04am

Sun Sep 19, 11:04pm

Sun Sep 19, 10:04pm

Sun Sep 19, 9:04pm

Sun Sep 19, 8:04pm

Sun Sep 19, 7:04pm

Sun Sep 19, 6:04pm

Sun Sep 19, 5:04pm

Sun Sep 19, 4:04pm

Sun Sep 19, 3:04pm

Sun Sep 19, 2:05pm

Sun Sep 19, 1:04pm

Sun Sep 19, 12:04pm

Sun Sep 19, 11:04am

Sun Sep 19, 10:05am

Sun Sep 19, 9:04am

Sun Sep 19, 8:04am

Sun Sep 19, 7:04am

Sun Sep 19, 6:04am

Sun Sep 19, 5:04am

Sun Sep 19, 4:04am

Sun Sep 19, 3:04am

Sun Sep 19, 2:04am

Sun Sep 19, 1:04am

Sun Sep 19, 12:04am

Sat Sep 18, 11:05pm

Sat Sep 18, 10:04pm

Sat Sep 18, 9:04pm

Sat Sep 18, 8:04pm

Sat Sep 18, 7:04pm

Sat Sep 18, 6:04pm

Sat Sep 18, 5:04pm

Sat Sep 18, 4:04pm

Sat Sep 18, 3:04pm

Sat Sep 18, 2:04pm

Sat Sep 18, 1:04pm

Sat Sep 18, 12:04pm

Sat Sep 18, 11:04am

Sat Sep 18, 10:04am

Sat Sep 18, 9:04am

Sat Sep 18, 8:04am

Sat Sep 18, 7:04am

Sat Sep 18, 6:04am

Sat Sep 18, 5:04am

Sat Sep 18, 4:04am

Sat Sep 18, 2:04am

Sat Sep 18, 1:04am

Sat Sep 18, 12:04am

Fri Sep 17, 11:04pm

Fri Sep 17, 10:04pm

Fri Sep 17, 9:04pm

Fri Sep 17, 8:04pm

Fri Sep 17, 7:04pm

Fri Sep 17, 6:04pm

Fri Sep 17, 5:04pm

Fri Sep 17, 4:04pm

Fri Sep 17, 3:04pm

Fri Sep 17, 2:04pm

Fri Sep 17, 1:04pm

Fri Sep 17, 12:05pm

Fri Sep 17, 11:04am

Fri Sep 17, 10:04am

Fri Sep 17, 9:04am

Fri Sep 17, 8:04am

Fri Sep 17, 7:04am

Fri Sep 17, 6:04am

Fri Sep 17, 5:04am

Fri Sep 17, 4:04am

Fri Sep 17, 3:04am

Fri Sep 17, 2:04am

Fri Sep 17, 1:04am

Fri Sep 17, 12:04am

Thu Sep 16, 11:04pm

Thu Sep 16, 10:04pm

Thu Sep 16, 9:04pm

Thu Sep 16, 8:04pm

Thu Sep 16, 7:04pm

Thu Sep 16, 6:04pm

Thu Sep 16, 5:04pm

Thu Sep 16, 4:04pm

Thu Sep 16, 3:04pm

Thu Sep 16, 2:04pm

Thu Sep 16, 1:05pm

Thu Sep 16, 12:04pm

Thu Sep 16, 11:05am

Thu Sep 16, 10:05am

Thu Sep 16, 9:04am

Thu Sep 16, 8:04am

Thu Sep 16, 7:04am

Thu Sep 16, 6:04am

Thu Sep 16, 5:04am

Meta data:

ID: abaf3b13-da26-4177-9ce7-a6aee73784a8
Link: https://api.weather.gov/products/abaf3b13-da26-4177-9ce7-a6aee73784a8